Location: Grums
(59.3529°N, 13.1129°E)
Time: 00:16:19
(UTC+01:00)

SEEDS - Pass Details

Date: 06 December 2021
Orbit: 584 x 600 km, 97.6° (Epoch: 27 January)

Event Time Altitude Azimuth Distance (km) Brightness Sun altitude
Rises 05:32:46 0° 14° (NNE) 2,829 ? -22.5°
Reaches altitude 10° 05:34:58 10° 10° (N) 1,923 ? -22.2°
Enters shadow 05:37:35 35° 351° (N) 957 ? -21.9°
